TimeCDT,TemperatureF,Dew PointF,Humidity,Sea Level PressureIn,VisibilityMPH,Wind Direction,Wind SpeedMPH,Gust SpeedMPH,PrecipitationIn,Events,Conditions,WindDirDegrees,DateUTC
12:52 AM,77.0,71.1,82,29.98,10.0,South,9.2,-,N/A,,Clear,170,2013-06-25 05:52:00
1:52 AM,77.0,71.1,82,29.97,10.0,South,8.1,-,N/A,,Clear,180,2013-06-25 06:52:00
2:52 AM,75.9,71.1,85,29.98,9.0,South,9.2,-,N/A,,Clear,190,2013-06-25 07:52:00
3:52 AM,75.0,71.1,87,29.99,9.0,SSW,6.9,-,N/A,,Clear,200,2013-06-25 08:52:00
4:52 AM,75.9,71.1,85,29.99,9.0,South,5.8,-,N/A,,Clear,180,2013-06-25 09:52:00
5:52 AM,75.0,71.1,87,30.01,7.0,South,5.8,-,N/A,,Clear,180,2013-06-25 10:52:00
6:52 AM,77.0,72.0,84,30.01,8.0,South,4.6,-,N/A,,Clear,190,2013-06-25 11:52:00
7:52 AM,80.1,72.0,76,30.01,10.0,SSW,9.2,-,N/A,,Clear,200,2013-06-25 12:52:00
8:52 AM,82.9,73.0,72,30.00,10.0,SSW,9.2,-,N/A,,Clear,200,2013-06-25 13:52:00
9:52 AM,86.0,73.0,65,30.00,10.0,SW,11.5,23.0,N/A,,Clear,220,2013-06-25 14:52:00
10:52 AM,88.0,72.0,59,30.00,10.0,SW,15.0,-,N/A,,Mostly Cloudy,220,2013-06-25 15:52:00
11:52 AM,90.0,71.1,54,29.99,10.0,SW,15.0,-,N/A,,Mostly Cloudy,230,2013-06-25 16:52:00
12:52 PM,90.0,72.0,55,29.98,10.0,SW,16.1,-,N/A,,Mostly Cloudy,230,2013-06-25 17:52:00
1:52 PM,91.0,71.1,52,29.97,10.0,SW,11.5,20.7,N/A,,Mostly Cloudy,230,2013-06-25 18:52:00
2:52 PM,91.9,71.1,50,29.96,10.0,SSW,15.0,-,N/A,,Mostly Cloudy,210,2013-06-25 19:52:00
3:52 PM,93.0,72.0,50,29.94,10.0,SW,16.1,19.6,N/A,,Mostly Cloudy,230,2013-06-25 20:52:00
4:52 PM,91.0,71.1,52,29.89,10.0,SSW,16.1,-,N/A,,Mostly Cloudy,210,2013-06-25 21:52:00
5:52 PM,90.0,71.1,54,29.87,10.0,SSW,16.1,20.7,N/A,,Clear,210,2013-06-25 22:52:00
6:52 PM,88.0,71.1,57,29.85,10.0,SSW,11.5,20.7,N/A,,Clear,200,2013-06-25 23:52:00
7:52 PM,84.9,71.1,63,29.85,10.0,SSW,9.2,-,N/A,,Clear,200,2013-06-26 00:52:00
8:52 PM,82.9,71.1,67,29.88,10.0,SSE,4.6,-,N/A,,Clear,150,2013-06-26 01:52:00
9:52 PM,81.0,71.1,72,29.90,10.0,South,4.6,-,N/A,,Clear,170,2013-06-26 02:52:00
10:52 PM,79.0,70.0,74,29.91,10.0,South,5.8,-,N/A,,Clear,170,2013-06-26 03:52:00
11:52 PM,79.0,70.0,74,29.91,10.0,South,8.1,-,N/A,,Clear,180,2013-06-26 04:52:00